Idaho Falls, ID

9:54 PM MST on January 17, 2018 (GMT -0700)
Fanning

Weather History for KIDA - November, 2012

Change the Weather History Date:

Thursday, November 29, 2012

  Actual Average Record
Temperature  
Mean Temperature 41 °F 26 °F  
Max Temperature 50 °F 34 °F 54 °F (1980)
Min Temperature 32 °F 17 °F -19 °F (1975)
Degree Days  
Heating Degree Days 24 40  
Month to date heating degree days 787 942  
Since 1 July heating degree days 1550 1864  
Cooling Degree Days 0 0  
Month to date cooling degree days 0 0  
Year to date cooling degree days 444 264  
Moisture  
Dew Point 32 °F    
Average Humidity 73    
Maximum Humidity 92    
Minimum Humidity 54    
Precipitation  
Precipitation T in 0.03 in 0.22 in (1970)
Month to date precipitation 0.93 0.84  
Year to date precipitation 6.11 9.49  
Sea Level Pressure  
Sea Level Pressure 30.06 in    
Wind  
Wind Speed 5 mph (SSW)    
Max Wind Speed 20 mph    
Max Gust Speed 25 mph    
Visibility 10 miles    
Events      
T = Trace of Precipitation, MM = Missing Value Source: NWS Daily Summary

Daily Weather History Graph

Daily Weather History Graph

Search for Another Location

Airport or City:

Trip Planner

Search our weather history database for the weather conditions in past years. The results will help you decide how hot, cold, wet, or windy it might be!

Date:

Astronomy

Nov. 29, 2012 Rise Set
Actual Time 7:39 AM MST 4:53 PM MST
Civil Twilight 7:07 AM MST 5:25 PM MST
Nautical Twilight 6:32 AM MST 6:01 PM MST
Astronomical Twilight 5:57 AM MST 6:35 PM MST
Moon 5:59 PM MST (11/29) 8:29 AM MST (11/29)
Length of Visible Light 10h 17m
Length of Day
9h 13m
Full, 99% of the Moon is Illuminated
Nov 29
Full
Dec 6
Last Quarter
Dec 13
New
Dec 19
First Quarter
Dec 28
Full

Hourly Weather History & Observations

Time (MST) Temp. Windchill Dew Point Humidity Pressure Visibility Wind Dir Wind Speed Gust Speed Precip Events Conditions
12:53 AM 39.9 °F 36.7 °F 30.0 °F 68% 30.00 in 10.0 mi South 4.6 mph - N/A   Overcast
1:53 AM 39.0 °F 34.0 °F 30.9 °F 73% 30.01 in 10.0 mi SW 6.9 mph - N/A   Overcast
2:53 AM 39.9 °F 33.9 °F 30.9 °F 70% 30.04 in 10.0 mi SSW 9.2 mph - N/A   Overcast
3:53 AM 39.0 °F 31.4 °F 32.0 °F 76% 30.06 in 10.0 mi South 12.7 mph - 0.00 in   Scattered Clouds
4:53 AM 39.9 °F 32.1 °F 33.1 °F 77% 30.06 in 10.0 mi South 13.8 mph - N/A   Clear
5:53 AM 36.0 °F 29.6 °F 30.9 °F 82% 30.09 in 10.0 mi SSW 8.1 mph - N/A   Mostly Cloudy
6:53 AM 37.9 °F 33.5 °F 30.9 °F 76% 30.11 in 10.0 mi SSW 5.8 mph - N/A   Clear
7:53 AM 36.0 °F 29.6 °F 30.9 °F 82% 30.13 in 10.0 mi SSW 8.1 mph - N/A   Partly Cloudy
8:53 AM 37.9 °F 33.5 °F 30.9 °F 76% 30.14 in 10.0 mi SSW 5.8 mph - N/A   Mostly Cloudy
9:53 AM 37.9 °F 30.5 °F 30.9 °F 76% 30.15 in 10.0 mi SSW 11.5 mph - N/A   Scattered Clouds
10:53 AM 42.1 °F 37.7 °F 32.0 °F 67% 30.14 in 10.0 mi SSW 6.9 mph - N/A   Partly Cloudy
11:53 AM 46.0 °F 41.4 °F 34.0 °F 63% 30.08 in 10.0 mi SW 9.2 mph - N/A   Partly Cloudy
12:53 PM 48.0 °F - 32.0 °F 54% 30.06 in 10.0 mi SSW 5.8 mph - N/A   Scattered Clouds
1:53 PM 48.9 °F - 34.0 °F 56% 30.04 in 10.0 mi Calm Calm - N/A   Partly Cloudy
2:53 PM 50.0 °F - 35.1 °F 57% 30.01 in 10.0 mi Calm Calm - N/A   Overcast
3:53 PM 46.0 °F 41.9 °F 37.0 °F 71% 30.03 in 10.0 mi North 8.1 mph - N/A   Scattered Clouds
4:53 PM 42.1 °F 40.2 °F 36.0 °F 79% 30.03 in 10.0 mi NNE 3.5 mph - N/A   Clear
5:53 PM 39.0 °F - 33.1 °F 79% 30.05 in 10.0 mi Calm Calm - N/A   Clear
6:53 PM 36.0 °F - 33.1 °F 89% 30.05 in 10.0 mi Calm Calm - N/A   Mostly Cloudy
7:53 PM 36.0 °F - 32.0 °F 86% 30.05 in 10.0 mi Calm Calm - N/A   Overcast
8:53 PM 34.0 °F - 30.0 °F 85% 30.04 in 8.0 mi Calm Calm - N/A   Clear
9:53 PM 34.0 °F 31.0 °F 30.0 °F 85% 30.03 in 9.0 mi North 3.5 mph - N/A   Clear
10:53 PM 34.0 °F - 30.0 °F 85% 30.02 in 10.0 mi Calm Calm - N/A   Mostly Cloudy
11:53 PM 37.9 °F 35.5 °F 30.9 °F 76% 29.98 in 10.0 mi SE 3.5 mph - N/A   Overcast